FENGYUN 1C DEB, 37693

Orbit data source: Space-Track

FENGYUN 1C DEB, 37693 is space debris in SSO originally from a launch on Mon, 10 May 1999 UTC launched from the Taiyaun Space Center, China (TSC). Fengyun 1C debris stems from the Chinese weather satellite Fengyun-1C, which was intentionally destroyed by a Chinese anti-satellite missile in 2007. This event dramatically increased the amount of space debris, with thousands of trackable fragments posing hazards to satellites and human spaceflight. The Fengyun 1C debris cloud has become a focal point in discussions about space sustainability and the need for international regulations to prevent the creation of new debris.

Loading next visibility...
Identifier
37693, 1999-025ELJ
Orbit
SSO
Country
Flag of CNCN / PRC
Related business
Manufacturer
Unknown
Mission
Spacecraft
Bus & Motor
Unknown
Mass
Unknown
Launch date (UTC)
1999-05-10 (27 years ago)
Launch vehicle
Unknown
Launch site
Taiyaun Space Center, China (TSC)
Object type
Payload
Rocket body
Debris
Shape & HBR
Unknown shape, 0.1 m
Radar Cross Section
Small (<0.1 m²)

Expand to show TLE details & history
Last TLE update: 1 day ago

TLE from 1 day ago
0 FENGYUN 1C DEB
1 37693U 99025ELJ 26061.95193231  .00001057  00000-0  62382-3 0  9998
2 37693  98.6979  63.8845 0070872 207.2908 184.5695 14.08693524632780
Epoch: 2026-03-02T22:50Z
TLE epoch observation values (Epoch: 2026-03-02T22:50:46.951Z)
Latitude
31.44512°
Longitude
-84.88868°
Altitude
919.003 km
Speed
7.369 km/s
True Right ascension
03h 54m 10s
True Declination
31° 17' 44"
Sunlit
Object was in daylight at epoch
Visualization orbit readout
Latitude
Unknown
Longitude
Unknown
Altitude
Unknown
Speed
Unknown
Apparent Right ascension
Unknown
Apparent Declination
Unknown
Sunlit
N/A
Visualization observer readout
Local Sidereal Time
06:10:57
Azimuth
Unknown
Elevation
Unknown
Doppler factor
Unknown
Orbital elements
Apogee altitude
912.324 km
Perigee altitude
809.714 km
Semi-major axis
7,239.156 km
Eccentricity
0.00709
Inclination
98.6979°
RAAN
63.8845°
Arg. of periapsis
207.2908°
True anomaly
184.50537°
Mean anomaly
184.5695°
Eccentric anomaly
184.53738°
Mean motion
3.5238 °/min
Orbital period
102.16 mins
BSTAR
0.00062382
Loading maneuver chart data...
Computing Atmospheric mass density...

Documentation

Showing up to 5 results
|